This is the latest recevied weather packets stored in our database for station/object K7FLA. If no packets are shown the sender has not sent any weather packets the latest 10 day(s).
| Time | Temp. | Humidity | Pressure | Rain* | Wind** | Luminosity | Snow |
|---|---|---|---|---|---|---|---|
| 1777928591 | 18.33° C | 45% | 1095.4 hPa | 0 mm | - | 166 W/m² | - |
| 1777928289 | 18.89° C | 44% | 1095.5 hPa | 0 mm | - | 180 W/m² | - |
| 1777927986 | 18.89° C | 46% | 1095.4 hPa | 0 mm | - | 254 W/m² | - |
| 1777927684 | 18.33° C | 44% | 1095.3 hPa | 0 mm | - | 393 W/m² | - |
| 1777927382 | 18.33° C | 45% | 1095.5 hPa | 0 mm | - | 515 W/m² | - |
| 1777927081 | 18.33° C | 45% | 1095.5 hPa | 0 mm | - | 401 W/m² | - |
| 1777926778 | 18.33° C | 44% | 1095.4 hPa | 0 mm | - | 382 W/m² | - |
| 1777926478 | 18.33° C | 44% | 1095.6 hPa | 0 mm | - | 383 W/m² | - |
| 1777926176 | 17.78° C | 45% | 1095.5 hPa | 0 mm | - | 367 W/m² | - |
| 1777925873 | 17.78° C | 46% | 1095.4 hPa | 0 mm | - | 354 W/m² | - |
| 1777925570 | 17.78° C | 46% | 1095.4 hPa | 0 mm | - | 356 W/m² | - |
| 1777925268 | 17.78° C | 47% | 1095.6 hPa | 0 mm | - | 350 W/m² | - |
| 1777924963 | 17.22° C | 47% | 1096 hPa | 0 mm | - | 402 W/m² | - |
| 1777924660 | 17.22° C | 48% | 1095.7 hPa | 0 mm | - | 432 W/m² | - |
| 1777924356 | 16.67° C | 47% | 1095.9 hPa | 0 mm | - | 332 W/m² | - |
| 1777924053 | 16.67° C | 47% | 1095.6 hPa | 0 mm | - | 342 W/m² | - |
| 1777923749 | 16.67° C | 48% | 1095.7 hPa | 0 mm | - | 410 W/m² | - |
| 1777923446 | 16.67° C | 49% | 1095.9 hPa | 0 mm | - | 379 W/m² | - |
| 1777923143 | 16.67° C | 48% | 1096 hPa | 0 mm | - | 326 W/m² | - |
| 1777922842 | 16.67° C | 48% | 1095.9 hPa | 0 mm | - | 407 W/m² | - |
| 1777922539 | 16.11° C | 51% | 1096 hPa | 0 mm | - | 346 W/m² | - |
| 1777922238 | 15.56° C | 52% | 1096.1 hPa | 0 mm | - | 228 W/m² | - |
| 1777921934 | 15.56° C | 51% | 1096 hPa | 0 mm | - | 252 W/m² | - |
| 1777921629 | 15.56° C | 52% | 1096.1 hPa | 0 mm | - | 187 W/m² | - |
| 1777921326 | 15.56° C | 52% | 1096 hPa | 0 mm | - | 174 W/m² | - |
* Rain latest hour (hover to see other rain measurements)
** Current wind speed in m/s (hover to see current wind gust speed)